| time (UTC) | temp F | wind direction | speed MPH | gust MPH | rain 1hr in | rain 24hr in | rain mn in | humidity % | barometer mb |
| 20260504021630 | 43 | 344 | 0.0 | 0.0 | 0.00 | 0.00 | 0.00 | 65 | 1006.2 |
| 20260504021129 | 44 | 344 | 0.0 | 0.0 | 0.00 | 0.00 | 0.00 | 66 | 1006.2 |
| 20260504020112 | 45 | 344 | 0.0 | 1.0 | 0.00 | 0.00 | 0.00 | 63 | 1006.3 |
| 20260504015610 | 45 | 344 | 0.0 | 2.0 | 0.00 | 0.00 | 0.00 | 64 | 1006.3 |
| 20260504015104 | 46 | 348 | 0.0 | 2.0 | 0.00 | 0.00 | 0.00 | 60 | 1006.3 |
| 20260504014611 | 46 | 341 | 0.0 | 2.0 | 0.00 | 0.00 | 0.00 | 59 | 1006.3 |
| 20260504013613 | 47 | 334 | 0.0 | 2.0 | 0.00 | 0.00 | 0.00 | 58 | 1006.5 |
| 20260504012107 | 47 | 345 | 1.0 | 2.0 | 0.00 | 0.00 | 0.00 | 58 | 1006.5 |
| 20260504011104 | 47 | 330 | 0.0 | 1.0 | 0.00 | 0.00 | 0.00 | 63 | 1006.7 |
| 20260504010605 | 47 | 330 | 0.0 | 1.0 | 0.00 | 0.00 | 0.00 | 63 | 1006.6 |
| 20260504010106 | 47 | 331 | 0.0 | 1.0 | 0.00 | 0.00 | 0.00 | 60 | 1006.7 |
| 20260504005612 | 48 | 344 | 0.0 | 0.0 | 0.00 | 0.00 | 0.00 | 60 | 1006.7 |
| 20260504005105 | 48 | 344 | 0.0 | 1.0 | 0.00 | 0.00 | 0.00 | 58 | 1006.7 |
| 20260504004604 | 48 | 344 | 0.0 | 2.0 | 0.00 | 0.00 | 0.00 | 56 | 1006.7 |
| 20260504003552 | 49 | 340 | 1.0 | 4.0 | 0.00 | 0.00 | 0.00 | 55 | 1006.6 |
| 20260504003052 | 49 | 355 | 1.0 | 4.0 | 0.00 | 0.00 | 0.00 | 54 | 1006.6 |
| 20260504002555 | 49 | 341 | 1.0 | 2.0 | 0.00 | 0.00 | 0.00 | 53 | 1006.6 |
| 20260504002054 | 49 | 344 | 0.0 | 3.0 | 0.00 | 0.00 | 0.00 | 53 | 1006.7 |
| 20260504001551 | 49 | 334 | 1.0 | 3.0 | 0.00 | 0.00 | 0.00 | 53 | 1006.8 |
| 20260504001056 | 50 | 337 | 1.0 | 5.0 | 0.00 | 0.00 | 0.00 | 53 | 1006.8 |
| 20260504000052 | 50 | 323 | 1.0 | 3.0 | 0.00 | 0.00 | 0.00 | 53 | 1006.8 |
| 20260503235553 | 50 | 299 | 1.0 | 5.0 | 0.00 | 0.00 | 0.00 | 53 | 1006.9 |
| 20260503235053 | 50 | 307 | 2.0 | 5.0 | 0.00 | 0.00 | 0.00 | 53 | 1006.9 |
| 20260503234555 | 51 | 331 | 3.0 | 5.0 | 0.00 | 0.00 | 0.00 | 53 | 1006.9 |
| 20260503234052 | 51 | 354 | 2.0 | 3.0 | 0.00 | 0.00 | 0.00 | 53 | 1007.0 |
| 20260503233551 | 51 | 296 | 1.0 | 3.0 | 0.00 | 0.00 | 0.00 | 54 | 1006.9 |
| 20260503233052 | 51 | 353 | 1.0 | 3.0 | 0.00 | 0.00 | 0.00 | 55 | 1007.0 |
| 20260503232552 | 51 | 326 | 1.0 | 3.0 | 0.00 | 0.00 | 0.00 | 55 | 1006.9 |
| 20260503231055 | 51 | 336 | 2.0 | 3.0 | 0.00 | 0.00 | 0.00 | 56 | 1007.0 |
| 20260503230552 | 51 | 357 | 0.0 | 2.0 | 0.00 | 0.00 | 0.00 | 57 | 1007.1 |
| 20260503230052 | 51 | 353 | 1.0 | 1.0 | 0.00 | 0.00 | 0.00 | 57 | 1007.1 |
| 20260503225552 | 52 | 353 | 1.0 | 2.0 | 0.00 | 0.00 | 0.00 | 56 | 1007.1 |
| 20260503225054 | 52 | 0 | 1.0 | 2.0 | 0.00 | 0.00 | 0.00 | 55 | 1007.1 |
| 20260503224552 | 52 | 340 | 0.0 | 2.0 | 0.00 | 0.00 | 0.00 | 56 | 1007.2 |
| 20260503224052 | 52 | 334 | 1.0 | 2.0 | 0.00 | 0.00 | 0.00 | 56 | 1007.2 |
| 20260503223552 | 52 | 289 | 1.0 | 2.0 | 0.00 | 0.00 | 0.00 | 57 | 1007.2 |
| 20260503223051 | 52 | 300 | 1.0 | 3.0 | 0.00 | 0.00 | 0.00 | 57 | 1007.1 |
| 20260503222552 | 52 | 350 | 1.0 | 3.0 | 0.00 | 0.00 | 0.00 | 58 | 1007.1 |
| 20260503221556 | 52 | 347 | 0.0 | 5.0 | 0.00 | 0.00 | 0.00 | 58 | 1007.2 |
| 20260503221052 | 52 | 330 | 3.0 | 5.0 | 0.00 | 0.00 | 0.00 | 57 | 1007.2 |
| 20260503220555 | 53 | 336 | 2.0 | 3.0 | 0.00 | 0.00 | 0.00 | 58 | 1007.3 |
| 20260503220052 | 53 | 354 | 2.0 | 3.0 | 0.00 | 0.00 | 0.00 | 59 | 1007.3 |
| 20260503215552 | 53 | 333 | 1.0 | 2.0 | 0.00 | 0.00 | 0.00 | 59 | 1007.2 |
| 20260503215052 | 53 | 348 | 1.0 | 3.0 | 0.00 | 0.00 | 0.00 | 60 | 1007.3 |
| 20260503214052 | 53 | 353 | 2.0 | 3.0 | 0.00 | 0.00 | 0.00 | 61 | 1007.3 |
| 20260503213052 | 53 | 0 | 2.0 | 3.0 | 0.00 | 0.00 | 0.00 | 62 | 1007.4 |
| 20260503212552 | 53 | 337 | 2.0 | 3.0 | 0.00 | 0.00 | 0.00 | 62 | 1007.3 |
| 20260503212051 | 53 | 331 | 2.0 | 3.0 | 0.00 | 0.00 | 0.00 | 64 | 1007.3 |
| 20260503211055 | 53 | 333 | 1.0 | 2.0 | 0.00 | 0.00 | 0.00 | 67 | 1007.3 |
| 20260503210552 | 53 | 314 | 2.0 | 4.0 | 0.00 | 0.00 | 0.00 | 67 | 1007.3 |
| 20260503205553 | 53 | 344 | 1.0 | 2.0 | 0.00 | 0.00 | 0.00 | 69 | 1007.3 |
| 20260503205051 | 53 | 334 | 0.0 | 2.0 | 0.00 | 0.00 | 0.00 | 70 | 1007.3 |
| 20260503204552 | 53 | 344 | 0.0 | 1.0 | 0.00 | 0.00 | 0.00 | 73 | 1007.2 |
| 20260503204051 | 53 | 336 | 0.0 | 0.0 | 0.00 | 0.00 | 0.00 | 72 | 1007.3 |
| 20260503203552 | 53 | 336 | 0.0 | 0.0 | 0.00 | 0.00 | 0.00 | 72 | 1007.1 |
| 20260503203055 | 53 | 336 | 0.0 | 0.0 | 0.00 | 0.00 | 0.00 | 72 | 1007.2 |
| 20260503202052 | 53 | 336 | 0.0 | 0.0 | 0.00 | 0.00 | 0.00 | 71 | 1007.3 |
| 20260503201553 | 53 | 336 | 0.0 | 0.0 | 0.00 | 0.00 | 0.00 | 71 | 1007.5 |
| 20260503200555 | 53 | 336 | 0.0 | 0.0 | 0.00 | 0.00 | 0.00 | 72 | 1007.4 |
| 20260503200055 | 53 | 336 | 0.0 | 0.0 | 0.00 | 0.00 | 0.00 | 71 | 1007.4 |
| 20260503195555 | 53 | 336 | 0.0 | 0.0 | 0.00 | 0.00 | 0.00 | 71 | 1007.4 |
| 20260503195052 | 53 | 336 | 0.0 | 0.0 | 0.00 | 0.00 | 0.00 | 71 | 1007.4 |
| 20260503194555 | 53 | 336 | 0.0 | 0.0 | 0.00 | 0.00 | 0.00 | 70 | 1007.4 |
| 20260503194052 | 53 | 336 | 0.0 | 0.0 | 0.00 | 0.00 | 0.00 | 70 | 1007.4 |
| 20260503193552 | 54 | 336 | 0.0 | 0.0 | 0.00 | 0.00 | 0.00 | 70 | 1007.4 |
| 20260503193051 | 54 | 336 | 0.0 | 0.0 | 0.00 | 0.00 | 0.00 | 69 | 1007.4 |
| 20260503192554 | 54 | 336 | 0.0 | 0.0 | 0.00 | 0.00 | 0.00 | 70 | 1007.4 |
| 20260503192052 | 54 | 336 | 0.0 | 0.0 | 0.00 | 0.00 | 0.00 | 69 | 1007.5 |
| 20260503191553 | 54 | 336 | 0.0 | 0.0 | 0.00 | 0.00 | 0.00 | 70 | 1007.6 |
| 20260503191051 | 54 | 336 | 0.0 | 0.0 | 0.00 | 0.00 | 0.00 | 70 | 1007.5 |
| 20260503190052 | 54 | 336 | 0.0 | 0.0 | 0.00 | 0.00 | 0.00 | 71 | 1007.5 |
| 20260503185551 | 54 | 336 | 0.0 | 0.0 | 0.00 | 0.00 | 0.00 | 69 | 1007.5 |
| 20260503183557 | 55 | 336 | 0.0 | 0.0 | 0.00 | 0.00 | 0.00 | 68 | 1007.5 |
| 20260503183051 | 55 | 336 | 0.0 | 0.0 | 0.00 | 0.00 | 0.00 | 67 | 1007.5 |
| 20260503182554 | 55 | 336 | 0.0 | 0.0 | 0.00 | 0.00 | 0.00 | 67 | 1007.4 |
| 20260503182057 | 55 | 336 | 0.0 | 0.0 | 0.00 | 0.00 | 0.00 | 68 | 1007.4 |
| 20260503181552 | 56 | 336 | 0.0 | 0.0 | 0.00 | 0.00 | 0.00 | 67 | 1007.4 |
| 20260503181050 | 56 | 336 | 0.0 | 1.0 | 0.00 | 0.00 | 0.00 | 67 | 1007.4 |
| 20260503180550 | 56 | 336 | 0.0 | 1.0 | 0.00 | 0.00 | 0.00 | 66 | 1007.4 |
| 20260503180049 | 56 | 336 | 0.0 | 1.0 | 0.00 | 0.00 | 0.00 | 64 | 1007.4 |
| 20260503175553 | 56 | 336 | 1.0 | 1.0 | 0.00 | 0.00 | 0.00 | 65 | 1007.4 |
| 20260503174550 | 56 | 309 | 0.0 | 0.0 | 0.00 | 0.00 | 0.00 | 67 | 1007.2 |
| 20260503174051 | 56 | 309 | 0.0 | 0.0 | 0.00 | 0.00 | 0.00 | 66 | 1007.3 |
| 20260503173552 | 56 | 309 | 0.0 | 1.0 | 0.00 | 0.00 | 0.00 | 66 | 1007.2 |
| 20260503173051 | 56 | 309 | 0.0 | 1.0 | 0.00 | 0.00 | 0.00 | 65 | 1007.3 |
| 20260503172555 | 57 | 309 | 0.0 | 1.0 | 0.00 | 0.00 | 0.00 | 65 | 1007.3 |
| 20260503172052 | 57 | 303 | 0.0 | 0.0 | 0.00 | 0.00 | 0.00 | 66 | 1007.3 |
| 20260503171552 | 57 | 303 | 0.0 | 0.0 | 0.00 | 0.00 | 0.00 | 65 | 1007.2 |
| 20260503171054 | 57 | 303 | 0.0 | 0.0 | 0.00 | 0.00 | 0.00 | 64 | 1007.2 |
| 20260503151007 | 60 | 344 | 2.0 | 3.0 | 0.00 | 0.00 | 0.00 | 54 | 1007.4 |
| 20260503150504 | 60 | 283 | 0.0 | 2.0 | 0.00 | 0.00 | 0.00 | 53 | 1007.4 |
| 20260503130955 | 62 | 298 | 3.0 | 7.0 | 0.00 | 0.00 | 0.00 | 52 | 1007.6 |
| 20260503130451 | 62 | 333 | 3.0 | 7.0 | 0.00 | 0.00 | 0.00 | 53 | 1007.6 |
| 20260503110453 | 59 | 298 | 1.0 | 4.0 | 0.00 | 0.00 | 0.00 | 61 | 1007.8 |
| 20260503081450 | 53 | 25 | 0.0 | 1.0 | 0.00 | 0.00 | 0.00 | 73 | 1007.6 |
| 20260503080950 | 53 | 316 | 0.0 | 1.0 | 0.00 | 0.00 | 0.00 | 73 | 1007.5 |
| 20260503080451 | 53 | 316 | 0.0 | 1.0 | 0.00 | 0.00 | 0.00 | 72 | 1007.5 |
| 20260503072450 | 52 | 321 | 0.0 | 2.0 | 0.00 | 0.00 | 0.00 | 74 | 1007.0 |
| 20260503071950 | 51 | 321 | 1.0 | 3.0 | 0.00 | 0.00 | 0.00 | 73 | 1007.0 |
| 20260503071450 | 51 | 343 | 2.0 | 3.0 | 0.00 | 0.00 | 0.00 | 75 | 1006.9 |
| 20260503070951 | 50 | 313 | 0.0 | 2.0 | 0.00 | 0.00 | 0.00 | 77 | 1006.9 |
| 20260503070451 | 50 | 320 | 0.0 | 2.0 | 0.00 | 0.00 | 0.00 | 77 | 1006.9 |
| 20260503054936 | 49 | 321 | 1.0 | 3.0 | 0.00 | 0.00 | 0.00 | 76 | 1006.0 |
| 20260503054429 | 48 | 44 | 2.0 | 3.0 | 0.00 | 0.00 | 0.00 | 77 | 1005.9 |
| 20260503053929 | 48 | 307 | 1.0 | 3.0 | 0.00 | 0.00 | 0.00 | 78 | 1006.3 |
| 20260503053430 | 48 | 345 | 0.0 | 4.0 | 0.00 | 0.00 | 0.00 | 79 | 1006.3 |
| 20260503052930 | 48 | 347 | 0.0 | 4.0 | 0.00 | 0.00 | 0.00 | 79 | 1006.1 |
| 20260503051929 | 47 | 285 | 1.0 | 3.0 | 0.00 | 0.00 | 0.00 | 79 | 1006.0 |
| 20260503051430 | 47 | 312 | 1.0 | 4.0 | 0.00 | 0.00 | 0.00 | 80 | 1006.0 |
| 20260503050432 | 47 | 358 | 2.0 | 3.0 | 0.00 | 0.00 | 0.00 | 81 | 1005.9 |
| 20260503045931 | 46 | 272 | 1.0 | 4.0 | 0.00 | 0.00 | 0.00 | 82 | 1005.8 |
| 20260503044931 | 46 | 272 | 1.0 | 3.0 | 0.00 | 0.00 | 0.00 | 83 | 1005.9 |
| 20260503044433 | 45 | 355 | 2.0 | 3.0 | 0.00 | 0.00 | 0.00 | 83 | 1006.0 |
| 20260503043904 | 45 | 264 | 0.0 | 2.0 | 0.00 | 0.00 | 0.00 | 84 | 1005.8 |
| 20260503042905 | 44 | 281 | 1.0 | 1.0 | 0.00 | 0.00 | 0.00 | 86 | 1005.8 |
| 20260503042404 | 44 | 238 | 0.0 | 1.0 | 0.00 | 0.00 | 0.00 | 86 | 1005.9 |
| 20260503041903 | 44 | 238 | 0.0 | 1.0 | 0.00 | 0.00 | 0.00 | 86 | 1005.8 |
| 20260503041402 | 44 | 151 | 0.0 | 2.0 | 0.00 | 0.00 | 0.00 | 87 | 1005.7 |
| 20260503040857 | 43 | 169 | 0.0 | 3.0 | 0.00 | 0.00 | 0.00 | 87 | 1005.5 |
| 20260503035850 | 43 | 164 | 1.0 | 2.0 | 0.00 | 0.00 | 0.00 | 88 | 1005.7 |
| 20260503035350 | 43 | 261 | 0.0 | 2.0 | 0.00 | 0.00 | 0.00 | 88 | 1005.4 |
| 20260503034852 | 42 | 296 | 1.0 | 2.0 | 0.00 | 0.00 | 0.00 | 89 | 1005.3 |
| 20260503034355 | 42 | 353 | 1.0 | 2.0 | 0.00 | 0.00 | 0.00 | 90 | 1005.3 |
| 20260503033855 | 41 | 13 | 0.0 | 2.0 | 0.00 | 0.00 | 0.00 | 91 | 1005.3 |
| 20260503032852 | 40 | 79 | 0.0 | 1.0 | 0.00 | 0.00 | 0.00 | 90 | 1005.2 |
| 20260503032353 | 40 | 79 | 0.0 | 1.0 | 0.00 | 0.00 | 0.00 | 90 | 1005.1 |
| 20260503031852 | 40 | 79 | 0.0 | 0.0 | 0.00 | 0.00 | 0.00 | 90 | 1005.2 |
| 20260503031350 | 40 | 79 | 0.0 | 0.0 | 0.00 | 0.00 | 0.00 | 90 | 1005.2 |
| 20260503030350 | 40 | 79 | 0.0 | 0.0 | 0.00 | 0.00 | 0.00 | 89 | 1005.4 |
| 20260503025851 | 40 | 79 | 0.0 | 0.0 | 0.00 | 0.00 | 0.00 | 89 | 1005.5 |
| 20260503024851 | 40 | 79 | 0.0 | 0.0 | 0.00 | 0.00 | 0.00 | 89 | 1005.5 |
| 20260503024350 | 40 | 79 | 0.0 | 0.0 | 0.00 | 0.00 | 0.00 | 89 | 1005.4 |
| 20260503023855 | 40 | 79 | 0.0 | 0.0 | 0.00 | 0.00 | 0.00 | 89 | 1005.4 |
| 20260503023351 | 40 | 79 | 0.0 | 1.0 | 0.00 | 0.00 | 0.00 | 89 | 1005.6 |
| 20260503022852 | 40 | 79 | 0.0 | 1.0 | 0.00 | 0.00 | 0.00 | 88 | 1005.5 |
| 20260503021854 | 40 | 55 | 0.0 | 0.0 | 0.00 | 0.00 | 0.00 | 88 | 1005.2 |